User: anonymous   Login
Location: Harbor Island
(32.3990°N, 80.4435°W)
Time: 07:05:09
(UTC-04:00)
Language:

Cosmos 1455 - Orbit

View from above orbital plane
View from above orbital plane
View from above satellite
View from above satellite

Ground track
Ground track

The orbit data is extracted from the following two-line orbital elements,

1 14032U 83037A   17291.56234073 +.00000976 +00000-0 +47252-4 0  9997
2 14032 082.5154 325.4446 0016718 206.1135 153.9257 15.17251549879844
Epoch (UTC): 18 October 2017 13:29:46
Eccentricity: 0.0016718
inclination: 82.5154°
perigee height: 502 km
apogee height: 525 km
right ascension of ascending node: 325.4446°
argument of perigee: 206.1135°
revolutions per day: 15.17251549
mean anomaly at epoch: 153.9257°
orbit number at epoch: 87984

The dashed part of the orbit path shows where the satellite is in the earth's shadow,  

DLR